Beaumont, TX

12:26 AM CDT on August 24, 2017 (GMT -0500)
Southeast Texas Regional

Weather History for KBPT - January, 2015

Change the Weather History Date:

Saturday, January 10, 2015

  Actual Average Record
Temperature  
Mean Temperature 42 °F 52 °F  
Max Temperature 47 °F 62 °F 79 °F (1950)
Min Temperature 37 °F 43 °F 16 °F (1962)
Degree Days  
Heating Degree Days 23 13  
Month to date heating degree days 186 130  
Since 1 July heating degree days 671 680  
Cooling Degree Days 0 0  
Month to date cooling degree days 0 0  
Year to date cooling degree days 0 0  
Moisture  
Dew Point 30 °F    
Average Humidity 62    
Maximum Humidity 86    
Minimum Humidity 37    
Precipitation  
Precipitation 0.25 in 0.17 in 2.25 in (1991)
Month to date precipitation 1.54 1.79  
Year to date precipitation 1.54 1.79  
Snow  
Snow 0.00 in 0.00 in T in (1973)
Month to date snowfall 0.0 0.0  
Since 1 July snowfall 0.0 T  
Snow Depth 0.00 in    
Sea Level Pressure  
Sea Level Pressure 30.41 in    
Wind  
Wind Speed 11 mph (ENE)    
Max Wind Speed 20 mph    
Max Gust Speed 28 mph    
Visibility 10 miles    
Events Rain    
T = Trace of Precipitation, MM = Missing Value Source: NWS Daily Summary

Daily Weather History Graph

Daily Weather History Graph

Search for Another Location

Airport or City:

Trip Planner

Search our weather history database for the weather conditions in past years. The results will help you decide how hot, cold, wet, or windy it might be!

Date:

Astronomy

Jan. 10, 2015 Rise Set
Actual Time 7:12 AM CST 5:34 PM CST
Civil Twilight 6:46 AM CST 6:00 PM CST
Nautical Twilight 6:17 AM CST 6:29 PM CST
Astronomical Twilight 5:48 AM CST 6:58 PM CST
Moon 10:38 PM CST (1/10) 10:21 AM CST (1/10)
Length of Visible Light 11h 13m
Length of Day
10h 21m
Waning Gibbous, 74% of the Moon is Illuminated
Jan 10
Waning Gibbous
Jan 13
Last Quarter
Jan 20
New
Jan 26
First Quarter
Feb 3
Full

Hourly Weather History & Observations

Time (CST) Temp. Windchill Dew Point Humidity Pressure Visibility Wind Dir Wind Speed Gust Speed Precip Events Conditions
12:53 AM 37.9 °F 31.5 °F 28.9 °F 70% 30.48 in 10.0 mi NNE 9.2 mph - N/A   Overcast
1:53 AM 37.9 °F 30.9 °F 28.9 °F 70% 30.47 in 10.0 mi NE 10.4 mph - N/A   Overcast
2:53 AM 37.9 °F 32.7 °F 28.9 °F 70% 30.48 in 10.0 mi NNE 6.9 mph - N/A   Mostly Cloudy
3:53 AM 37.9 °F 30.5 °F 28.0 °F 68% 30.47 in 10.0 mi NNE 11.5 mph - N/A   Overcast
4:53 AM 37.9 °F 30.5 °F 28.0 °F 68% 30.46 in 10.0 mi NE 11.5 mph - N/A   Overcast
5:53 AM 37.9 °F 30.5 °F 27.0 °F 65% 30.46 in 10.0 mi NE 11.5 mph - N/A   Overcast
6:53 AM 37.0 °F 27.7 °F 25.0 °F 62% 30.45 in 10.0 mi NE 16.1 mph - N/A   Overcast
7:53 AM 37.0 °F 29.3 °F 24.1 °F 59% 30.48 in 10.0 mi ENE 11.5 mph - N/A   Overcast
8:53 AM 39.0 °F 30.6 °F 25.0 °F 57% 30.48 in 10.0 mi NE 15.0 mph - N/A   Overcast
9:53 AM 39.9 °F 31.4 °F 24.1 °F 53% 30.49 in 10.0 mi ENE 16.1 mph - N/A   Overcast
10:53 AM 43.0 °F 37.2 °F 25.0 °F 49% 30.48 in 10.0 mi NE 10.4 mph - N/A   Overcast
11:53 AM 45.0 °F 39.7 °F 25.0 °F 46% 30.45 in 10.0 mi ENE 10.4 mph - N/A   Overcast
12:53 PM 46.0 °F 41.9 °F 21.9 °F 39% 30.41 in 10.0 mi NE 8.1 mph - N/A   Mostly Cloudy
1:53 PM 46.0 °F 41.9 °F 24.1 °F 42% 30.39 in 10.0 mi NNE 8.1 mph - N/A   Mostly Cloudy
2:53 PM 46.0 °F 44.8 °F 25.0 °F 44% 30.40 in 10.0 mi East 3.5 mph - 0.00 in   Overcast
3:53 PM 43.0 °F 41.3 °F 34.0 °F 71% 30.39 in 10.0 mi SE 3.5 mph - 0.00 in Rain Light Rain
4:53 PM 42.1 °F 38.4 °F 35.1 °F 76% 30.39 in 7.0 mi ENE 5.8 mph - 0.04 in Rain Light Rain
5:53 PM 41.0 °F 35.8 °F 35.1 °F 79% 30.39 in 9.0 mi ENE 8.1 mph - 0.05 in Rain Light Rain
6:53 PM 39.9 °F 32.1 °F 35.1 °F 83% 30.37 in 10.0 mi ENE 13.8 mph - 0.04 in Rain Light Rain
7:53 PM 41.0 °F 33.9 °F 36.0 °F 82% 30.35 in 9.0 mi East 12.7 mph - 0.03 in Rain Light Rain
8:53 PM 41.0 °F 34.3 °F 36.0 °F 82% 30.35 in 9.0 mi East 11.5 mph - 0.03 in Rain Light Rain
9:53 PM 41.0 °F 32.5 °F 37.0 °F 86% 30.30 in 8.0 mi East 17.3 mph - 0.04 in Rain Light Rain
10:53 PM 41.0 °F 34.7 °F 37.0 °F 86% 30.31 in 10.0 mi ENE 10.4 mph - 0.02 in   Partly Cloudy
11:53 PM 41.0 °F 34.3 °F 37.4 °F 87% 30.28 in 10.0 mi ENE 11.5 mph - N/A   Clear